Regional Weather Roundup
Issued by NWS

Home | Current Version | Previous Version | Text Only | Print | Product List | Glossary On
Versions: 1 2 3 4 5 6 7 8 9 10 11 12 13 14 15 16 17 18 19 20 21 22 23 24 25 26 27 28 29 30 31 32 33 34 35 36 37 38 39 40 41 42 43 44 45 46 47 48 49 50
000
ASUS43 KMPX 281610
RWRMN
WEATHER ROUNDUP FOR MINNESOTA
NATIONAL WEATHER SERVICE TWIN CITIES/CHANHASSEN MN
1100 AM CDT THU JUL 28 2016


NOTE: "FAIR" INDICATES FEW OR NO CLOUDS BELOW 12,000 FEET WITH NO
SIGNIFICANT WEATHER AND/OR OBSTRUCTIONS TO VISIBILITY. N/A MEANS
CURRENT SKY AND/OR WEATHER CONDITIONS ARE NOT AVAILABLE.

MNZ060>063-068>070-281700-
   Twin Cities Metro

CITY           SKY/WX    TMP DP  RH WIND       PRES   REMARKS
TWIN CITIES    CLOUDY    66  61  84 N10       30.04R
ST PAUL        CLOUDY    67  62  84 N12       30.04S
CRYSTAL        CLOUDY    66  59  78 N9        30.04R
BLAINE         CLOUDY    66  64  94 N8        30.05R
LAKEVILLE      CLOUDY    66  66 100 N7        30.04R
EDEN PRAIRIE   CLOUDY    67  61  81 N7        30.03S
LAKEVILLE      CLOUDY    66  66 100 N7        30.04R
SOUTH ST PAUL  CLOUDY    68  63  85 N10       30.03R
LAKE ELMO      CLOUDY    68  64  88 N7        30.05R
$$
MNZ001>005-007-008-013>017-022>024-027-028-281700-
   Northwest Minnesota

CITY           SKY/WX    TMP DP  RH WIND       PRES   REMARKS
BEMIDJI        PTSUNNY   70  57  64 NE5       30.11S
HALLOCK        SUNNY     66  54  63 N6        30.15R
ROSEAU         MOSUNNY   68  57  68 N5        30.14R
WARROAD        MOSUNNY   66  59  77 NE9       30.14S
THIEF RVR FALL SUNNY     70  58  65 N7        30.13S
CROOKSTON      SUNNY     72  61  68 N6        30.13R
FOSSTON        SUNNY     72  61  68 NE7       30.12S
DETROIT LAKES  PTSUNNY   72  59  64 CALM      30.12R
MOORHEAD       MOSUNNY   72  64  78 CALM      30.10S
PARK RAPIDS    MOSUNNY   72  61  68 VRB5      30.10F
MAHNOMEN       PTSUNNY   72  62  71 N5        30.11R
$$
MNZ006-009>011-018-025>026-281700-
   North Central Minnesota

CITY           SKY/WX    TMP DP  RH WIND       PRES   REMARKS
BAUDETTE       SUNNY     70  55  59 N6        30.12F
FLAG ISLAND    MOSUNNY   66  54  63 N8        30.13S
INTL FALLS     PTSUNNY   71  58  63 N5        30.11F
WASKISH        SUNNY     70  57  64 CALM      30.12R
BIG FORK       SUNNY     72  55  56 N5        30.10S
LONGVILLE      PTSUNNY   72  63  73 N3        30.10S
GRAND RAPIDS   PTSUNNY   70  60  70 CALM      30.12S
CRANE LAKE     SUNNY     66  59  77 S3        30.12S
ORR            SUNNY     70  55  60 CALM      30.09S
COOK           PTSUNNY   66  61  82 CALM      30.11S
WALKER         FAIR      69  62  79 NE3       30.11S
$$
MNZ012-019>021-037-281700-
   Northeast Minnesota

CITY           SKY/WX    TMP DP  RH WIND       PRES   REMARKS
DULUTH         SUNNY     71  54  54 E10       30.10S
ELY            MOSUNNY   70  52  52 SE3       30.11S
HIBBING        MOSUNNY   69  58  67 VRB6      30.11S
EVELETH        PTSUNNY   72  57  59 SE5       30.12S
DULUTH HARBOR  SUNNY     66  61  82 NE15      30.10S
TWO HARBORS    SUNNY     73  61  64 E9        30.09R
SILVER BAY     SUNNY     70  55  60 E9G16     30.09S
GRAND MARAIS     N/A     66  54  65 NE7       30.11R
$$
MNZ029>031-032-039>041-046>048-054>057-064-281700-
   West Central Minnesota

CITY           SKY/WX    TMP DP  RH WIND       PRES   REMARKS
FERGUS FALLS   PTSUNNY   72  61  68 E5        30.10S
WHEATON        PTSUNNY   73  64  73 CALM      30.11R
MORRIS         CLOUDY    73  61  64 NE5       30.08S
ALEXANDRIA     MOSUNNY   71  57  61 E8        30.11R
ELBOW LAKE     FAIR      71  61  71 E5        30.10R
WADENA         CLOUDY    72  61  68 E6        30.10R
GLENWOOD       CLOUDY    72  61  68 NE7       30.10R
APPLETON       CLOUDY    72  61  68 NE5       30.08R
BENSON         CLOUDY    70  55  60 E6        30.08S
ORTONVILLE     CLOUDY    70  61  73 CALM      30.10R
MADISON        CLOUDY    70  59  68 NE5       30.09R
WILLMAR        FAIR      70  63  78 NE6       30.09S
$$
MNZ033>034-036-042>043-049>051-058-059-281700-
   Central Minnesota

CITY           SKY/WX    TMP DP  RH WIND       PRES   REMARKS
ST CLOUD       CLOUDY    70  59  68 N8        30.07R
SAUK CENTRE    FAIR      69  59  70 NE8       30.10R
PAYNESVILLE    PTSUNNY   69  59  70 NE7       30.09R
PINE RIVER     CLOUDY    70  61  73 S5        30.13S
BRAINERD       MOSUNNY   69  56  62 NE8       30.10R
STAPLES        MOSUNNY   70  57  64 NE6       30.09S
LONG PRAIRIE   FAIR      68  59  73 NE5       30.10R
LITTLE FALLS   CLOUDY    68  52  56 NE5       30.09R
LITCHFIELD     CLOUDY    70  63  78 N6        30.08R
BUFFALO        CLOUDY    67  59  74 N7        30.06R
MAPLE LAKE     CLOUDY    68  62  79 NE7       30.07R
HUTCHINSON     MOSUNNY   67  63  86 NW7       30.07R
$$
MNZ037-044-045-052-053-281700-
   East Central Minnesota

CITY           SKY/WX    TMP DP  RH WIND       PRES   REMARKS
PRINCETON      CLOUDY    72  57  60 NE12      30.06S
MORA           MOSUNNY   68  55  64 E7        30.09S
CAMBRIDGE      CLOUDY    70  57  64 N9        30.05R
RUSH CITY      LGT RAIN  69  59  71 NE8       30.07R
MOOSE LAKE     PTSUNNY   70  55  60 NE6       30.07S
HINCKLEY       FAIR      70  59  68 NE6       30.08S
CLOQUET        MOSUNNY   68  52  56 E8        30.10S
MCGREGOR       MOSUNNY   70  54  56 E3        30.10S
$$
MNZ071>073-080-081-089-090-097-098-281700-
   Southwest Minnesota

CITY           SKY/WX    TMP DP  RH WIND       PRES   REMARKS
MONTEVIDEO     CLOUDY    70  63  78 NE3       30.10R
GRANITE FALLS  CLOUDY    70  63  78 NE6       30.09S
CANBY          CLOUDY    68  61  77 N6        30.10S
MARSHALL       CLOUDY    66  62  87 N6        30.08S
REDWOOD FALLS  CLOUDY    66  61  84 N7        30.07R
OLIVIA         CLOUDY    68  61  77 NE7       30.07R
PIPESTONE      PTSUNNY   72  61  68 NE7       30.08F
WINDOM         CLOUDY    66  63  88 N7        30.07S
WORTHINGTON    CLOUDY    68  62  81 N8        30.08S
JACKSON        CLOUDY    66  59  77 N6        30.07S
TRACY          CLOUDY    67  64  87 N6        30.08S
SLAYTON        CLOUDY    67  62  82 N7        30.09F HAZE
$$
MNZ065>067-074>077-082>085-091>093-281700-
   South Central Minnesota

CITY           SKY/WX    TMP DP  RH WIND       PRES   REMARKS
MANKATO        CLOUDY    68  61  77 N10       30.04S
NEW ULM        CLOUDY    68  63  83 N5        30.05F
ST JAMES       CLOUDY    63  57  82 CALM      30.06S
FAIRMONT       CLOUDY    64  61  88 N7        30.04S
GLENCOE        CLOUDY    66  64  90 NE3       30.06R
FARIBAULT      CLOUDY    70  64  83 NW10      30.04R
OWATONNA       CLOUDY    70  63  78 NW8       30.03R
WASECA         CLOUDY    64  61  88 N8        30.04S
ALBERT LEA     CLOUDY    68  63  83 N6        30.02S
$$
MNZ078>079-086>088-094>096-281700-
   Southeast Minnesota

CITY           SKY/WX    TMP DP  RH WIND       PRES   REMARKS
ROCHESTER      LGT RAIN  67  65  93 N8        30.01R FOG
RED WING       DRIZZLE   70  64  83 N6        30.00R
STANTON        CLOUDY    68  64  88 N8        30.02R
DODGE CENTER   CLOUDY    66  64  94 N8        30.02R
WINONA         CLOUDY    70  64  83 N9        29.97R
AUSTIN         CLOUDY    66  63  88 N8        30.01R
PRESTON        CLOUDY    66  63  90 N9        29.99S
$$
ABBREVIATIONS USED IN REMARKS
   TC - TEMPERATURES IN CELSIUS
  WCI - WIND CHILL INDEX
   HX - HEAT INDEX
  VSB - VISIBILITY
$$




USA.gov is the U.S. government's official web portal to all federal, state and local government web resources and services.